Temp
77 78 78 77 77 78 77 77 78 78 78 78 78 78 78 79 80 80 81 80 80 79 79 78 78 78 80 78 78 77 78 77 78 78 78 78 77 78 80 80 78 77
77 78 79 78 77 78 77 78 78 78 78 78 79 78 79 80 80 80 80 80 80 80 79 79 78 78 78 78 77 77 77 77 77 80 78 78 78 78 79 79 79 78
77 77 78 78 78 78 80 79 78 78 79 79 79 79 80 81 80 80 80 80 80 80 79 79 79 78 78 78 77 77 77 76 77 78 77 77 78 78 79 80 78 78
77 78 79 79 79 79 79 79 78 77 78 78 79 81 82 84 81 81 80 82 79 79 79 79 79 79 78 78 77 77 77 77 78 77 77 78 78 78 79 77 78 78
79 78 79 79 79 79 79 79 80 79 79 79 80 80 80 79 79 81 80 80 79 79 79 79 79 79 78 78 78 77 77 77 77 77 76 76 77 78 80 79 77 78
78 77 78 79 79 78 79 79 80 80 80 80 80 81 81 80 80 80 80 80 80 80 80 80 79 80 80 78 77 78 78 78 78 76 76 76 77 78 81 80 77 76
79 78 78 80 80 80 79 79 80 80 80 81 80 80 81 81 79 80 80 81 81 80 80 79 79 79 79 78 77 77 77 77 76 76 76 76 76 77 78 78 77 76
79 79 79 79 80 79 79 79 79 79 80 80 80 81 80 82 80 82 81 81 82 80 79 80 79 78 79 79 77 77 77 80 78 76 76 76 76 76 77 78 77 76
80 79 79 79 81 81 80 82 81 80 80 81 81 82 81 81 81 82 80 80 81 80 79 79 78 79 78 78 78 77 77 78 80 77 76 76 76 76 77 77 76 75
73 75 80 81 81 81 81 82 83 82 81 81 82 82 82 81 81 81 80 79 80 79 79 79 78 78 79 78 78 78 78 77 78 78 77 76 77 77 77 77 77 76
73 73 73 75 79 82 82 82 83 84 82 82 83 83 83 82 81 80 79 79 81 80 79 79 79 79 78 79 79 79 79 79 78 78 77 77 77 77 79 77 77 77
72 73 73 74 75 76 78 78 79 80 81 81 82 83 82 83 82 82 81 79 80 81 80 80 80 79 79 79 80 80 79 79 79 78 78 78 77 77 77 77 78 77
73 73 75 75 75 74 76 76 76 77 78 79 80 81 83 83 83 81 81 81 80 80 80 80 80 79 78 78 79 79 79 78 79 78 78 78 78 78 79 78 78 78
73 74 75 75 75 75 75 75 77 77 77 77 77 79 81 83 83 82 82 82 82 81 80 80 79 79 78 78 79 79 79 78 78 79 79 79 79 78 79 79 79 80
73 74 74 74 75 74 74 74 76 77 77 77 77 79 82 81 84 84 83 81 81 81 81 82 81 81 81 80 79 78 79 79 78 78 78 78 79 79 79 79 79 80
73 74 73 74 73 73 73 74 76 76 78 78 77 78 78 77 77 79 83 82 81 81 81 82 82 83 81 77 78 81 79 81 80 78 78 78 78 78 79 79 81 82
73 72 72 73 73 72 73 73 74 75 75 75 75 76 75 75 77 77 79 82 83 83 82 82 84 85 78 71 71 74 82 80 79 78 77 77 77 76 77 78 80 80
73 73 73 73 73 72 72 73 73 73 72 73 74 75 75 77 77 76 76 78 82 83 83 84 84 80 73 70 70 69 74 81 80 80 80 77 77 77 78 78 78 80
71 71 72 72 72 72 73 73 72 73 73 73 74 75 76 75 74 76 77 77 77 77 81 84 84 77 71 70 69 68 68 75 82 81 81 81 80 79 78 78 78 78
70 70 70 71 71 71 72 72 73 73 73 74 74 74 74 74 76 75 75 75 76 76 75 77 79 77 69 66 65 65 66 69 80 82 82 82 81 81 81 80 79 78
70 70 70 71 71 72 72 72 73 73 73 74 74 74 73 73 74 74 74 76 77 77 77 78 81 64 66 66 65 64 64 66 72 77 79 80 81 81 80 81 80 79
70 70 70 71 71 71 72 72 72 72 72 74 74 74 74 74 74 75 74 75 75 76 76 76 78 65 65 65 63 62 63 69 71 72 75 77 79 79 79 79 80 80
70 70 70 71 71 71 71 71 71 72 73 74 73 74 74 74 74 75 75 75 75 75 75 74 76 65 61 62 66 62 64 69 70 72 72 74 76 77 77 77 77 78
70 69 69 70 70 70 71 71 72 72 72 74 73 73 73 74 74 74 74 75 75 75 76 75 76 71 59 57 59 59 67 71 70 71 71 72 74 75 76 77 78 82
71 71 70 70 70 70 71 71 71 71 73 73 73 73 74 74 74 74 74 74 75 76 76 76 76 72 59 57 56 57 64 70 70 70 71 72 73 74 76 76 77 79
70 70 70 70 69 70 71 71 72 73 72 73 73 73 73 74 74 73 73 74 75 76 78 77 75 75 74 63 60 59 61 70 69 70 70 70 71 73 73 75 76 77
MSLP
1019.07 1019.07 1019.27 1019.47 1019.63 1019.67 1019.91 1020.15 1020.23 1020.35 1020.43 1020.47 1020.71 1020.75 1020.75 1020.63 1020.55 1020.67 1020.79 1020.87 1020.99 1021.11 1021.19 1021.23 1021.19 1021.27 1021.27 1021.31 1021.35 1021.47 1021.55 1021.63 1021.67 1021.67 1021.75 1021.83 1021.99 1022.03 1022.11 1022.03 1021.99 1022.11
1019.11 1019.11 1019.11 1019.27 1019.47 1019.51 1019.67 1019.71 1019.99 1020.11 1020.31 1020.35 1020.35 1020.39 1020.39 1020.43 1020.47 1020.51 1020.71 1020.87 1020.91 1021.07 1021.07 1021.11 1021.15 1021.19 1021.31 1021.39 1021.43 1021.59 1021.63 1021.67 1021.83 1021.55 1021.83 1021.91 1021.91 1021.91 1022.03 1021.95 1021.95 1021.79
1019.15 1019.19 1019.19 1019.39 1019.47 1019.55 1019.55 1019.59 1019.71 1019.87 1020.07 1020.11 1020.11 1020.23 1020.35 1020.23 1020.43 1020.47 1020.55 1020.71 1020.91 1020.91 1020.99 1021.03 1021.11 1021.19 1021.27 1021.35 1021.47 1021.63 1021.71 1021.75 1021.87 1021.67 1021.79 1021.91 1021.79 1021.95 1021.87 1021.79 1021.83 1021.83
1019.15 1019.15 1019.19 1019.23 1019.27 1019.43 1019.43 1019.59 1019.67 1019.79 1019.83 1020.07 1020.11 1019.99 1020.07 1020.11 1020.23 1020.43 1020.51 1020.59 1020.79 1020.91 1020.87 1020.95 1021.07 1021.15 1021.27 1021.35 1021.51 1021.67 1021.71 1021.75 1021.67 1021.63 1021.83 1021.83 1021.83 1021.87 1021.83 1021.75 1021.79 1021.83
1019.15 1019.23 1019.19 1019.19 1019.23 1019.27 1019.39 1019.59 1019.67 1019.71 1019.83 1019.79 1019.75 1019.75 1019.87 1020.03 1020.19 1020.35 1020.47 1020.59 1020.67 1020.87 1020.87 1020.95 1020.99 1021.11 1021.19 1021.39 1021.55 1021.79 1021.75 1021.83 1021.71 1021.75 1021.95 1022.07 1021.83 1021.79 1021.71 1021.71 1021.87 1021.95
1019.07 1019.11 1019.15 1019.19 1019.23 1019.39 1019.51 1019.59 1019.55 1019.59 1019.67 1019.75 1019.71 1019.59 1019.67 1019.75 1019.99 1020.19 1020.35 1020.55 1020.63 1020.79 1020.91 1020.91 1021.03 1021.03 1021.07 1021.27 1021.47 1021.67 1021.71 1021.83 1021.75 1021.79 1022.03 1022.11 1021.91 1021.67 1021.71 1021.71 1021.91 1022.07
1019.11 1019.19 1019.23 1019.15 1019.23 1019.23 1019.39 1019.43 1019.43 1019.43 1019.47 1019.43 1019.43 1019.59 1019.51 1019.75 1019.87 1019.99 1020.07 1020.23 1020.47 1020.71 1020.83 1020.91 1020.99 1021.07 1020.99 1021.15 1021.39 1021.59 1021.59 1021.63 1021.63 1021.75 1021.95 1021.95 1021.91 1021.87 1021.63 1021.71 1021.87 1021.95
1019.03 1019.03 1019.11 1019.15 1019.27 1019.27 1019.35 1019.35 1019.39 1019.43 1019.35 1019.39 1019.55 1019.43 1019.39 1019.55 1019.67 1019.71 1019.83 1019.99 1020.23 1020.47 1020.59 1020.67 1020.79 1020.91 1020.95 1021.07 1021.39 1021.55 1021.59 1021.47 1021.59 1021.71 1021.87 1021.87 1021.87 1022.03 1021.83 1021.71 1021.79 1021.95
1018.83 1019.03 1019.07 1019.19 1019.27 1019.27 1019.35 1019.31 1019.31 1019.31 1019.23 1019.43 1019.43 1019.35 1019.23 1019.35 1019.47 1019.55 1019.63 1019.83 1020.03 1020.19 1020.35 1020.51 1020.59 1020.71 1020.79 1020.95 1021.15 1021.35 1021.47 1021.47 1021.35 1021.51 1021.67 1021.83 1021.91 1021.91 1021.79 1021.63 1021.83 1021.91
1019.07 1018.75 1018.95 1019.07 1019.27 1019.23 1019.31 1019.19 1019.11 1019.15 1019.11 1019.23 1019.23 1019.19 1019.27 1019.19 1019.23 1019.39 1019.51 1019.71 1019.91 1019.99 1020.11 1020.19 1020.35 1020.47 1020.59 1020.71 1020.83 1020.99 1021.19 1021.27 1021.27 1021.27 1021.39 1021.51 1021.59 1021.63 1021.63 1021.63 1021.71 1021.79
1018.67 1018.83 1018.83 1018.99 1019.11 1019.03 1019.11 1019.03 1019.03 1018.99 1018.99 1019.07 1019.07 1019.19 1019.07 1019.11 1019.19 1019.19 1019.39 1019.51 1019.67 1019.79 1019.87 1019.95 1020.03 1020.15 1020.39 1020.51 1020.55 1020.55 1020.71 1020.87 1020.95 1021.03 1021.11 1021.19 1021.23 1021.27 1021.27 1021.35 1021.43 1021.51
1018.31 1018.55 1018.87 1018.99 1019.03 1019.07 1018.95 1018.87 1018.79 1018.71 1018.71 1018.75 1018.83 1018.95 1018.95 1018.99 1019.11 1019.19 1019.27 1019.43 1019.35 1019.39 1019.47 1019.59 1019.63 1019.79 1019.99 1020.15 1020.23 1020.31 1020.43 1020.47 1020.55 1020.67 1020.71 1020.83 1020.87 1020.95 1020.99 1021.03 1021.15 1021.15
1018.47 1018.39 1018.43 1018.67 1018.87 1018.99 1019.03 1018.91 1018.83 1018.75 1018.71 1018.67 1018.55 1018.75 1018.95 1018.99 1018.95 1019.11 1019.07 1019.19 1019.27 1019.27 1019.39 1019.43 1019.51 1019.59 1019.75 1019.87 1019.95 1020.03 1020.15 1020.31 1020.39 1020.39 1020.43 1020.47 1020.47 1020.51 1020.51 1020.55 1020.63 1020.71
1018.19 1018.11 1018.31 1018.43 1018.55 1018.75 1018.83 1018.87 1018.79 1018.67 1018.63 1018.55 1018.51 1018.59 1018.67 1018.79 1018.87 1018.87 1018.83 1018.87 1018.95 1019.07 1019.11 1019.15 1019.31 1019.47 1019.55 1019.59 1019.67 1019.75 1019.91 1020.03 1020.11 1020.19 1020.23 1020.23 1020.15 1020.15 1020.15 1020.19 1020.19 1020.27
1017.91 1018.07 1018.27 1018.39 1018.51 1018.59 1018.59 1018.55 1018.55 1018.55 1018.47 1018.47 1018.47 1018.47 1018.43 1018.39 1018.35 1018.47 1018.63 1018.75 1018.71 1018.75 1018.79 1018.83 1019.07 1019.19 1019.15 1019.23 1019.47 1019.59 1019.59 1019.75 1019.83 1019.95 1020.03 1020.11 1020.03 1019.99 1019.91 1019.87 1019.91 1019.87
1017.99 1018.27 1018.39 1018.31 1018.35 1018.31 1018.23 1018.19 1018.15 1018.15 1018.19 1018.27 1018.35 1018.43 1018.47 1018.47 1018.43 1018.31 1018.39 1018.55 1018.67 1018.63 1018.59 1018.63 1018.67 1018.59 1018.55 1018.59 1018.67 1018.91 1019.19 1019.31 1019.43 1019.59 1019.75 1019.83 1019.99 1019.99 1019.91 1019.75 1019.63 1019.59
1018.23 1018.43 1018.43 1018.43 1018.31 1018.31 1018.31 1018.27 1018.27 1018.27 1018.27 1018.27 1018.27 1018.31 1018.43 1018.51 1018.59 1018.63 1018.47 1018.27 1018.35 1018.47 1018.55 1018.51 1018.35 1018.15 1018.11 1018.23 1018.39 1018.43 1018.59 1018.95 1019.19 1019.31 1019.35 1019.55 1019.67 1019.83 1019.87 1019.75 1019.51 1019.35
1018.35 1018.39 1018.51 1018.51 1018.39 1018.39 1018.31 1018.23 1018.19 1018.19 1018.27 1018.35 1018.39 1018.39 1018.31 1018.27 1018.51 1018.51 1018.43 1018.31 1018.11 1018.03 1018.11 1018.07 1017.95 1017.67 1017.75 1017.87 1018.03 1018.15 1018.31 1018.51 1018.75 1019.03 1019.15 1019.27 1019.27 1019.31 1019.31 1019.31 1019.27 1019.19
1018.63 1018.71 1018.75 1018.63 1018.47 1018.31 1018.23 1018.23 1018.23 1018.27 1018.27 1018.27 1018.31 1018.19 1018.19 1018.39 1018.43 1018.31 1018.27 1018.19 1018.11 1018.15 1018.03 1017.71 1017.63 1017.35 1017.51 1017.55 1017.71 1017.87 1018.07 1018.31 1018.39 1018.55 1018.83 1018.91 1018.91 1018.91 1018.91 1018.91 1018.91 1018.91
1018.75 1018.79 1018.79 1018.63 1018.47 1018.39 1018.27 1018.23 1018.27 1018.27 1018.11 1017.99 1018.03 1018.07 1018.23 1018.31 1018.27 1018.27 1018.15 1018.11 1018.03 1018.03 1018.03 1017.91 1017.71 1017.51 1017.63 1017.83 1017.99 1018.07 1018.15 1018.31 1018.23 1018.23 1018.31 1018.39 1018.43 1018.43 1018.47 1018.51 1018.55 1018.67
1018.67 1018.67 1018.71 1018.71 1018.63 1018.67 1018.55 1018.39 1018.27 1018.19 1018.11 1017.99 1017.99 1018.11 1018.23 1018.23 1018.19 1018.19 1018.07 1017.99 1017.91 1017.79 1017.87 1017.95 1017.83 1017.75 1017.67 1017.67 1017.79 1017.95 1018.19 1018.59 1018.71 1018.67 1018.51 1018.39 1018.23 1018.19 1018.19 1018.11 1018.07 1018.11
1018.59 1018.51 1018.39 1018.47 1018.71 1018.79 1018.75 1018.59 1018.39 1018.27 1018.19 1017.95 1017.91 1017.91 1017.91 1017.87 1017.83 1017.79 1017.91 1017.95 1017.87 1017.83 1017.95 1018.03 1017.79 1017.71 1017.67 1017.67 1017.83 1017.95 1018.07 1018.19 1018.27 1018.39 1018.47 1018.35 1018.19 1017.99 1017.95 1017.87 1017.87 1017.91
1018.43 1018.35 1018.35 1018.51 1018.79 1018.95 1018.87 1018.59 1018.43 1018.31 1018.15 1017.95 1018.11 1018.07 1018.07 1017.99 1017.87 1017.75 1017.67 1017.75 1017.83 1017.83 1017.95 1018.11 1018.03 1017.83 1017.75 1017.71 1017.63 1017.71 1017.75 1017.87 1017.99 1018.11 1018.19 1018.19 1017.95 1017.71 1017.67 1017.67 1017.63 1017.59
1018.31 1018.39 1018.43 1018.47 1018.67 1018.95 1018.91 1018.63 1018.27 1018.03 1017.99 1017.83 1018.15 1018.23 1018.23 1017.99 1017.71 1017.63 1017.55 1017.51 1017.63 1017.71 1017.63 1017.83 1017.79 1017.79 1017.99 1017.95 1017.91 1017.75 1017.67 1017.75 1017.75 1017.79 1017.79 1017.75 1017.67 1017.51 1017.43 1017.35 1017.23 1017.15
1018.31 1018.39 1018.51 1018.59 1018.67 1018.71 1018.67 1018.55 1018.31 1018.07 1017.83 1017.71 1017.87 1017.95 1017.99 1017.79 1017.67 1017.63 1017.55 1017.47 1017.43 1017.43 1017.35 1017.47 1017.47 1017.35 1017.47 1017.51 1017.51 1017.51 1017.59 1017.59 1017.63 1017.71 1017.79 1017.71 1017.63 1017.51 1017.27 1017.15 1016.95 1016.67
1018.63 1018.63 1018.59 1018.63 1018.71 1018.63 1018.51 1018.35 1018.03 1017.79 1017.67 1017.67 1017.67 1017.67 1017.75 1017.63 1017.55 1017.51 1017.59 1017.51 1017.35 1017.31 1017.27 1017.19 1017.27 1017.19 1016.99 1017.03 1017.11 1017.15 1017.15 1017.15 1017.23 1017.51 1017.67 1017.63 1017.59 1017.55 1017.47 1017.11 1016.83 1016.63
Wind_Speed
5 5 6 6 5 6 6 6 6 7 6 6 6 6 6 6 6 6 6 5 5 4 4 4 4 3 3 3 3 3 3 3 3 3 3 3 3 4 5 4 3 3
5 4 5 5 5 4 5 5 6 7 7 6 6 5 5 5 5 6 6 5 5 5 4 4 4 4 3 3 3 3 3 2 3 2 3 3 4 3 5 4 4 3
5 5 6 6 6 6 6 5 5 5 6 6 5 4 5 5 5 5 6 6 6 5 5 4 4 3 3 3 3 3 3 3 3 3 3 4 4 4 4 4 3 3
5 6 5 5 5 6 5 5 4 4 4 5 6 6 5 5 5 6 6 6 5 5 5 4 5 4 4 3 3 3 3 3 4 3 3 3 3 3 4 3 3 3
6 5 4 4 4 5 5 6 6 6 5 6 5 5 5 4 5 6 6 6 5 5 4 5 4 5 4 4 4 4 3 4 3 3 3 4 4 3 4 3 3 4
4 4 4 5 5 5 6 6 6 6 6 6 7 6 6 5 5 6 6 6 5 5 5 5 5 5 5 4 4 5 4 4 4 3 3 4 4 3 3 3 3 4
6 5 5 5 5 6 6 6 6 6 6 6 5 6 6 6 6 6 7 7 7 6 5 5 5 5 4 4 4 4 4 4 3 3 4 4 3 4 4 3 3 3
6 5 5 5 6 5 6 6 6 6 6 5 6 6 5 7 7 6 6 7 8 8 6 6 6 6 5 4 5 5 5 4 4 4 4 5 4 4 5 4 3 4
5 5 5 6 8 7 7 6 6 6 5 6 6 6 5 5 6 6 6 7 7 7 7 6 7 6 5 6 6 6 6 5 5 4 4 5 5 6 6 5 4 4
4 2 6 7 8 7 7 6 6 6 5 7 7 6 7 6 5 6 6 7 7 7 7 7 7 6 6 6 7 7 7 7 6 6 5 5 5 5 6 5 6 5
4 2 2 3 6 7 7 6 6 6 5 7 7 7 7 7 6 5 7 8 9 9 8 8 8 7 7 7 7 7 8 8 7 7 6 6 6 6 6 6 6 6
7 5 3 2 2 3 4 4 4 5 5 5 6 8 7 7 8 7 7 8 8 9 9 9 8 8 8 8 8 8 7 8 8 8 8 7 6 6 6 5 6 6
6 6 6 7 4 3 2 2 3 2 2 3 2 3 5 7 7 8 8 8 8 7 8 8 8 8 8 8 8 8 8 8 8 8 8 7 6 7 6 6 6 6
8 7 7 7 5 3 3 3 3 3 3 3 1 1 3 5 6 8 8 8 9 8 8 7 7 8 7 8 7 8 8 8 8 8 8 8 7 7 6 7 7 7
7 6 5 4 3 4 4 4 3 4 4 3 3 4 3 3 5 7 8 8 8 9 9 8 8 8 8 8 8 8 8 8 8 8 8 8 7 7 7 7 6 7
4 3 5 5 6 6 5 5 5 5 5 4 4 3 4 4 3 4 5 7 8 9 8 8 8 8 10 15 13 10 9 8 7 7 7 7 7 7 7 7 7 7
2 2 2 3 3 2 2 3 3 3 3 3 3 2 1 3 3 4 3 5 7 8 9 9 9 9 15 15 16 17 11 8 8 7 6 7 7 7 7 8 7 7
4 3 2 0 1 2 3 2 2 2 2 2 2 2 1 1 2 2 2 3 5 7 9 10 10 13 16 16 17 17 14 9 7 7 7 7 7 8 8 7 8 8
4 5 3 2 2 2 1 0 0 0 1 1 1 1 1 1 3 2 1 1 1 2 6 8 9 13 15 16 16 16 16 13 8 8 8 8 8 9 9 9 8 8
3 3 3 3 2 2 1 1 0 0 1 1 1 1 1 2 2 1 1 1 0 1 2 3 3 5 6 8 8 10 11 10 8 9 9 9 9 10 9 10 9 9
3 3 3 3 3 3 2 2 2 1 1 0 1 1 2 2 2 2 3 2 0 0 1 2 2 7 8 6 5 6 5 3 5 6 6 6 7 8 9 10 10 10
2 3 3 4 3 3 2 2 2 1 2 2 1 1 2 3 3 2 2 1 0 0 1 0 1 4 5 5 5 6 4 2 3 6 7 8 8 6 6 7 8 9
2 3 3 2 2 3 3 2 2 2 1 1 2 2 2 2 2 2 1 1 1 1 0 1 1 1 4 4 3 5 4 3 3 4 5 6 8 8 7 5 5 7
3 2 2 2 2 3 4 3 2 1 1 1 2 3 4 3 2 2 2 2 2 2 2 2 2 7 10 6 6 7 5 4 5 5 6 6 7 6 6 6 7 12
5 4 3 3 3 4 4 4 3 2 2 1 2 3 4 4 3 2 2 2 3 3 5 4 4 3 12 13 11 12 8 5 5 5 6 6 6 6 6 7 8 10
4 5 6 5 5 4 3 4 3 2 2 2 2 3 4 3 3 2 3 3 2 2 2 1 1 2 2 4 7 9 10 6 5 5 6 6 6 6 7 7 8 8
Wind_Direction
186 175 177 172 171 173 171 172 180 173 183 182 183 191 187 197 196 196 195 202 208 208 211 209 205 201 206 199 190 192 186 195 212 221 227 226 247 259 275 292 302 266
194 187 175 169 168 170 168 168 171 173 182 186 192 188 199 195 201 195 197 200 204 205 201 198 199 200 196 195 188 195 213 198 224 230 230 235 251 260 269 274 268 274
189 192 177 179 175 178 177 176 162 173 180 192 193 184 197 202 200 203 203 198 200 202 193 195 195 198 199 198 183 199 211 209 232 253 230 243 257 261 258 272 306 304
200 192 185 183 176 179 180 176 177 177 183 189 199 200 187 193 195 200 206 199 195 203 195 189 199 196 193 204 191 202 218 223 232 233 239 265 261 245 261 260 278 272
197 196 191 179 178 180 179 186 193 190 191 200 206 212 205 193 176 195 195 198 189 202 197 197 199 203 190 194 195 204 208 225 248 247 251 262 268 256 258 274 293 295
198 203 198 184 180 179 187 194 202 199 201 198 207 206 208 201 178 179 185 185 189 199 203 202 201 210 200 194 190 203 205 209 232 230 244 253 267 269 267 280 290 294
193 192 203 199 191 190 191 196 202 205 207 208 195 202 202 200 196 183 180 184 186 195 202 204 210 215 213 201 194 207 219 211 223 218 231 251 253 274 275 276 288 286
196 189 196 202 204 201 204 199 202 208 208 212 209 209 195 197 199 199 184 180 185 193 198 202 206 212 214 203 206 214 225 219 220 220 227 243 242 252 261 264 252 258
205 191 195 206 206 207 211 210 209 208 211 210 216 220 213 203 200 202 194 188 188 188 191 197 201 207 207 201 208 211 219 227 224 214 217 229 235 239 244 251 258 243
316 227 215 206 207 211 210 216 215 212 207 215 216 216 219 222 200 198 193 192 198 199 199 197 197 205 206 205 205 207 215 223 227 225 220 221 226 232 236 238 241 250
226 279 179 216 226 211 209 204 211 218 207 212 213 218 219 217 221 200 193 193 199 202 205 208 205 200 206 213 214 209 211 216 220 224 228 227 226 229 230 226 232 231
187 191 225 221 203 231 199 179 181 184 191 206 217 217 213 216 215 217 205 203 203 203 205 208 208 204 205 210 212 212 213 217 217 220 225 226 227 226 227 223 226 231
187 208 200 210 216 197 242 209 191 197 190 174 169 214 234 220 212 214 219 212 212 208 210 210 211 211 210 211 212 210 211 213 218 221 224 225 227 227 226 225 227 233
187 198 203 213 207 189 198 238 250 231 224 220 219 207 203 226 223 211 215 215 216 212 214 210 210 213 215 215 213 210 208 214 217 220 222 225 228 225 224 226 226 227
186 184 185 185 162 161 165 187 227 255 255 250 244 244 249 243 229 223 216 214 219 215 215 211 209 213 211 210 212 216 213 217 216 220 222 226 230 231 228 226 226 225
167 152 170 173 172 177 186 197 209 221 231 236 240 261 271 286 297 256 228 224 221 220 218 216 216 217 216 212 208 209 212 217 216 219 222 225 230 238 244 238 237 233
129 148 167 190 207 181 186 221 239 246 245 237 239 237 270 292 303 313 280 234 225 222 219 220 223 222 218 214 215 217 215 216 215 219 215 220 224 229 236 241 245 243
65 104 130 165 193 175 183 207 215 208 226 248 263 274 263 254 288 287 290 277 247 230 224 223 222 222 216 214 216 219 219 218 218 223 221 219 223 224 228 229 236 239
68 70 67 57 29 25 7 168 168 281 308 307 273 239 222 257 263 258 273 310 317 289 256 238 233 226 219 217 218 219 220 221 226 221 226 231 228 230 232 234 232 235
97 86 71 35 5 358 25 39 109 219 225 227 237 248 233 237 230 255 272 295 331 25 357 328 289 309 274 260 259 248 239 228 234 231 229 232 233 232 235 236 234 234
72 87 79 45 1 342 334 26 33 50 42 304 237 229 222 209 219 246 252 238 190 79 29 355 31 62 80 106 151 186 209 212 264 290 286 271 255 247 245 242 240 236
41 51 53 33 2 332 331 4 358 1 13 343 315 257 245 234 238 225 234 248 236 120 118 54 11 64 88 86 102 100 130 160 208 230 246 255 261 258 249 250 251 251
12 36 46 48 351 310 313 322 342 335 332 311 316 288 252 236 218 201 193 241 264 248 212 187 189 150 77 82 62 124 136 164 184 207 228 239 247 247 247 246 249 249
355 342 4 355 334 302 286 283 268 270 282 296 294 294 284 255 234 224 222 209 210 217 208 224 225 157 154 172 173 192 193 192 201 205 221 231 244 246 245 249 243 241
14 6 356 340 327 306 286 270 257 248 257 267 264 264 270 271 265 261 257 245 236 230 216 216 220 171 146 164 175 186 192 199 197 200 218 228 236 249 247 244 246 245
8 8 357 352 334 318 320 304 287 284 274 272 277 272 276 275 280 276 282 280 287 291 314 344 340 296 259 237 213 205 199 195 192 196 225 234 231 239 250 251 250 257